contact:dominique.lefevre@mio.osupytheas.fr, maurice.libes@osupytheas.fr, didier.mallarino@osupytheas.fr
Project:EMSO http://www.emso-fr.org/EMSO-France
Depth: 2436.0 m
Title:EMSO Ligure Ouest : Data MII capteur AQUADOPP
Date,Latitude,Longitude,X_East,Y_North,Z_Up,Amplitude_X,Amplitude_Y,Amplitude_Z,Batterie,SoundSpeed,Heading,Pitch,Roll,Pressure,TIS,Speed,Direction
, degrees North, degrees East, m.s-1, m.s-1,m.s-1, 1, 1, 1, Volt, m.s-1, degree, degree, degree, dbar, degree_C, m.s-1, degree
2019-10-25T00:04:04,42.805,6.029,0.052,0.001,-0.024,99.0,104.0,97.0,13.4,1505.1,325.9,-0.8,1.8,2470.467,13.27,0.052,88.9
2019-10-25T00:07:05,42.805,6.029,0.052,0.021,-0.015,100.0,104.0,97.0,13.4,1505.2,327.7,-0.8,1.9,2470.373,13.29,0.056,68.0
2019-10-25T00:10:06,42.805,6.029,0.036,0.009,-0.024,100.0,103.0,97.0,13.4,1505.2,323.9,-0.7,1.9,2470.295,13.3,0.037,76.0
2019-10-25T00:13:07,42.805,6.029,0.038,0.01,-0.059,99.0,105.0,97.0,13.4,1505.3,326.8,-0.7,1.8,2470.194,13.31,0.039,75.3
2019-10-25T00:16:08,42.805,6.029,0.032,0.009,-0.046,98.0,105.0,98.0,13.4,1505.3,327.7,-0.7,1.9,2470.157,13.31,0.033,74.3
2019-10-25T00:19:09,42.805,6.029,0.016,0.005,0.004,100.0,105.0,98.0,13.3,1505.3,327.9,-0.7,1.8,2470.052,13.32,0.016,72.6
2019-10-25T00:22:10,42.805,6.029,0.045,-0.009,-0.021,100.0,104.0,98.0,13.4,1505.3,325.2,-0.7,1.8,2470.045,13.32,0.045,101.3
2019-10-25T00:25:11,42.805,6.029,0.062,-0.012,-0.005,100.0,103.0,98.0,13.4,1505.3,323.7,-0.7,1.8,2470.007,13.32,0.063,101.0
2019-10-25T00:28:12,42.805,6.029,0.042,0.017,-0.019,99.0,104.0,99.0,13.4,1505.3,325.4,-0.7,1.8,2470.003,13.32,0.045,68.0
2019-10-25T00:31:13,42.805,6.029,0.042,0.0,-0.023,100.0,104.0,98.0,13.4,1505.3,325.0,-0.7,1.8,2469.956,13.32,0.042,90.0
2019-10-25T00:34:14,42.805,6.029,0.083,0.0,0.0,99.0,105.0,99.0,13.4,1505.3,324.2,-0.7,1.8,2469.91,13.32,0.082,90.0
2019-10-25T00:37:15,42.805,6.029,0.069,0.001,-0.016,100.0,103.0,97.0,13.4,1505.3,324.5,-0.7,1.9,2469.92,13.32,0.069,89.2
2019-10-25T00:40:16,42.805,6.029,0.091,-0.015,0.015,101.0,103.0,98.0,13.4,1505.3,326.4,-0.7,1.8,2469.905,13.32,0.092,99.4
2019-10-25T00:43:17,42.805,6.029,0.074,0.017,-0.004,99.0,102.0,98.0,13.4,1505.3,325.7,-0.7,1.8,2469.898,13.32,0.075,77.1
2019-10-25T00:46:18,42.805,6.029,0.041,-0.009,-0.019,99.0,102.0,98.0,13.4,1505.3,324.4,-0.7,1.8,2469.951,13.32,0.041,102.4
2019-10-25T00:49:19,42.805,6.029,0.055,-0.016,-0.005,99.0,102.0,98.0,13.4,1505.3,326.0,-0.7,1.9,2469.897,13.32,0.057,106.2
2019-10-25T00:52:20,42.805,6.029,0.055,0.007,-0.004,100.0,103.0,98.0,13.4,1505.3,328.7,-0.7,1.8,2469.899,13.32,0.055,82.7
2019-10-25T00:55:21,42.805,6.029,0.039,0.0,-0.035,99.0,104.0,98.0,13.4,1505.3,327.4,-0.7,1.9,2469.893,13.32,0.039,90.0
2019-10-25T00:58:22,42.805,6.029,0.071,-0.007,-0.019,99.0,105.0,98.0,13.4,1505.3,323.9,-0.7,1.8,2469.897,13.32,0.071,95.6
2019-10-25T01:01:23,42.805,6.029,0.061,-0.004,-0.006,99.0,104.0,99.0,13.4,1505.3,325.1,-0.7,1.9,2469.899,13.32,0.061,93.7
2019-10-25T01:04:24,42.805,6.029,0.016,0.003,-0.016,100.0,104.0,99.0,13.3,1505.3,323.2,-0.7,1.8,2469.897,13.32,0.016,79.4
2019-10-25T01:07:25,42.805,6.029,0.078,-0.019,-0.013,99.0,105.0,99.0,13.4,1505.3,327.3,-0.7,1.8,2469.893,13.32,0.08,103.7
2019-10-25T01:10:26,42.805,6.029,0.076,0.013,0.022,99.0,104.0,97.0,13.4,1505.3,325.7,-0.7,1.8,2469.909,13.32,0.077,80.3
2019-10-25T01:13:27,42.805,6.029,0.066,-0.006,-0.002,99.0,101.0,98.0,13.3,1505.3,325.2,-0.7,1.8,2469.916,13.32,0.066,95.2
2019-10-25T01:16:28,42.805,6.029,0.064,0.009,0.012,100.0,102.0,97.0,13.4,1505.3,324.0,-0.7,1.9,2469.887,13.32,0.064,82.0
2019-10-25T01:19:29,42.805,6.029,0.073,0.002,0.036,99.0,102.0,98.0,13.4,1505.3,327.2,-0.8,1.8,2469.949,13.32,0.073,88.4
2019-10-25T01:22:30,42.805,6.029,0.052,0.005,0.017,99.0,102.0,98.0,13.3,1505.3,324.9,-0.7,1.9,2469.95,13.32,0.052,84.5
2019-10-25T01:25:31,42.805,6.029,0.038,0.011,-0.025,100.0,104.0,98.0,13.4,1505.3,326.9,-0.7,1.8,2469.923,13.32,0.039,73.9
2019-10-25T01:28:32,42.805,6.029,0.046,-0.007,-0.027,98.0,103.0,98.0,13.4,1505.3,323.5,-0.7,1.8,2469.882,13.32,0.046,98.7
2019-10-25T01:31:33,42.805,6.029,0.039,0.005,-0.047,99.0,105.0,98.0,13.3,1505.3,323.6,-0.7,1.8,2469.91,13.32,0.039,82.7
2019-10-25T01:34:34,42.805,6.029,0.06,-0.008,-0.023,99.0,104.0,98.0,13.4,1505.3,327.5,-0.7,1.8,2469.888,13.32,0.06,97.6
2019-10-25T01:37:35,42.805,6.029,0.072,-0.005,0.0,100.0,103.0,100.0,13.4,1505.3,323.8,-0.7,1.8,2469.889,13.32,0.072,94.0
2019-10-25T01:40:36,42.805,6.029,0.065,-0.002,-0.009,100.0,105.0,98.0,13.4,1505.3,324.1,-0.7,1.8,2469.926,13.32,0.065,91.8
2019-10-25T01:43:37,42.805,6.029,0.067,-0.014,-0.039,100.0,105.0,98.0,13.4,1505.3,326.2,-0.7,1.9,2469.899,13.32,0.068,101.8
2019-10-25T01:46:38,42.805,6.029,0.048,-0.013,-0.026,100.0,103.0,97.0,13.4,1505.3,326.4,-0.7,1.8,2469.941,13.32,0.049,105.2
2019-10-25T01:49:39,42.805,6.029,0.083,0.001,0.038,100.0,102.0,98.0,13.4,1505.3,323.9,-0.7,1.8,2469.938,13.32,0.083,89.3
2019-10-25T01:52:40,42.805,6.029,0.1,-0.006,0.038,98.0,104.0,98.0,13.4,1505.3,326.8,-0.7,1.8,2469.963,13.32,0.1,93.4
2019-10-25T01:55:41,42.805,6.029,0.053,0.001,0.014,101.0,100.0,98.0,13.3,1505.3,323.4,-0.8,1.8,2469.926,13.32,0.053,88.9
2019-10-25T01:58:42,42.805,6.029,0.064,0.024,0.025,98.0,102.0,97.0,13.3,1505.3,324.3,-0.7,1.8,2469.945,13.32,0.068,69.4
2019-10-25T02:01:43,42.805,6.029,0.06,0.013,0.009,99.0,102.0,98.0,13.4,1505.3,325.0,-0.7,1.8,2469.942,13.32,0.061,77.8
2019-10-25T02:04:44,42.805,6.029,0.056,-0.017,-0.028,99.0,103.0,98.0,13.4,1505.3,326.8,-0.7,1.8,2469.932,13.32,0.058,106.9
2019-10-25T02:07:45,42.805,6.029,0.088,-0.001,0.003,100.0,102.0,98.0,13.4,1505.3,325.5,-0.7,1.8,2469.887,13.32,0.088,90.6
2019-10-25T02:10:46,42.805,6.029,0.085,0.002,-0.019,100.0,103.0,98.0,13.4,1505.3,323.4,-0.7,1.8,2469.908,13.32,0.085,88.7
2019-10-25T02:13:47,42.805,6.029,0.063,-0.011,0.002,99.0,103.0,98.0,13.4,1505.3,326.3,-0.7,1.8,2469.926,13.32,0.063,99.9
2019-10-25T02:16:48,42.805,6.029,0.065,0.003,-0.01,100.0,103.0,98.0,13.4,1505.3,323.6,-0.7,1.8,2469.942,13.32,0.065,87.4
2019-10-25T02:19:49,42.805,6.029,0.053,0.0,0.006,99.0,103.0,98.0,13.3,1505.3,325.5,-0.7,1.9,2469.919,13.32,0.053,90.0
2019-10-25T02:22:50,42.805,6.029,0.05,-0.006,0.004,99.0,105.0,98.0,13.4,1505.3,328.5,-0.7,1.8,2469.973,13.32,0.05,96.8
2019-10-25T02:25:51,42.805,6.029,0.076,-0.003,-0.003,98.0,103.0,98.0,13.4,1505.3,326.8,-0.7,1.9,2469.967,13.32,0.076,92.3
2019-10-25T02:28:52,42.805,6.029,0.048,-0.001,0.024,100.0,101.0,99.0,13.4,1505.3,327.6,-0.7,1.8,2469.946,13.32,0.048,91.2
2019-10-25T02:31:53,42.805,6.029,0.086,-0.015,-0.001,100.0,103.0,98.0,13.4,1505.3,326.9,-0.7,1.8,2469.962,13.32,0.087,99.9
2019-10-25T02:34:54,42.805,6.029,0.05,-0.008,0.002,99.0,103.0,99.0,13.4,1505.3,326.2,-0.7,1.9,2469.946,13.32,0.05,99.1
2019-10-25T02:37:55,42.805,6.029,0.058,-0.023,-0.028,99.0,102.0,99.0,13.4,1505.3,324.4,-0.7,1.8,2469.962,13.32,0.062,111.6
2019-10-25T02:40:56,42.805,6.029,0.073,-0.002,0.009,100.0,103.0,98.0,13.4,1505.3,326.6,-0.7,1.9,2469.974,13.32,0.073,91.6
2019-10-25T02:43:57,42.805,6.029,0.04,0.0,-0.066,100.0,103.0,98.0,13.4,1505.3,325.9,-0.7,1.8,2469.956,13.32,0.04,90.0
2019-10-25T02:46:58,42.805,6.029,0.058,0.003,-0.011,100.0,103.0,98.0,13.3,1505.3,328.2,-0.7,1.8,2469.967,13.32,0.058,87.0
2019-10-25T02:49:59,42.805,6.029,0.073,-0.006,0.024,99.0,103.0,98.0,13.3,1505.3,325.4,-0.7,1.8,2469.987,13.32,0.073,94.7
2019-10-25T02:53:00,42.805,6.029,0.076,0.0,-0.008,99.0,103.0,98.0,13.4,1505.3,324.9,-0.7,1.8,2469.972,13.32,0.075,90.0
2019-10-25T02:56:01,42.805,6.029,0.073,-0.026,-0.016,100.0,103.0,99.0,13.4,1505.3,326.5,-0.7,1.8,2469.944,13.32,0.077,109.6
2019-10-25T02:59:02,42.805,6.029,0.051,-0.033,0.008,100.0,103.0,98.0,13.4,1505.3,326.8,-0.7,1.8,2470.001,13.32,0.06,122.9
2019-10-25T03:02:03,42.805,6.029,0.03,-0.054,-0.039,100.0,102.0,98.0,13.4,1505.3,326.8,-0.7,1.8,2469.996,13.32,0.061,150.9
2019-10-25T03:05:04,42.805,6.029,0.066,-0.001,0.0,100.0,103.0,98.0,13.3,1505.3,324.1,-0.7,1.9,2469.969,13.32,0.066,90.9
2019-10-25T03:08:05,42.805,6.029,0.06,-0.018,-0.016,100.0,102.0,98.0,13.3,1505.3,324.8,-0.7,1.8,2470.012,13.32,0.062,106.7
2019-10-25T03:11:06,42.805,6.029,0.059,0.0,-0.037,100.0,103.0,99.0,13.3,1505.3,325.3,-0.7,1.8,2469.98,13.32,0.058,90.0
2019-10-25T03:14:07,42.805,6.029,0.046,-0.017,0.027,100.0,103.0,98.0,13.4,1505.3,325.8,-0.7,1.9,2469.99,13.32,0.049,110.3
2019-10-25T03:17:08,42.805,6.029,0.044,-0.002,-0.023,101.0,103.0,99.0,13.4,1505.3,327.2,-0.7,1.8,2469.936,13.32,0.044,92.6
2019-10-25T03:20:09,42.805,6.029,0.054,-0.007,0.0,100.0,103.0,99.0,13.4,1505.3,324.3,-0.7,1.8,2469.975,13.32,0.054,97.4
2019-10-25T03:23:10,42.805,6.029,0.07,-0.006,-0.017,100.0,103.0,98.0,13.4,1505.3,324.2,-0.7,1.8,2469.967,13.32,0.07,94.9
2019-10-25T03:26:11,42.805,6.029,0.064,-0.001,-0.014,99.0,101.0,99.0,13.4,1505.3,326.2,-0.7,1.8,2469.959,13.32,0.064,90.9
2019-10-25T03:29:12,42.805,6.029,0.061,-0.016,-0.003,100.0,101.0,98.0,13.4,1505.3,326.4,-0.7,1.8,2469.996,13.32,0.063,104.7
2019-10-25T03:32:13,42.805,6.029,0.065,-0.013,-0.049,100.0,102.0,98.0,13.3,1505.3,326.7,-0.7,1.8,2470.024,13.32,0.066,101.3
2019-10-25T03:35:14,42.805,6.029,0.05,-0.034,-0.016,99.0,103.0,98.0,13.3,1505.3,328.2,-0.7,1.8,2469.995,13.32,0.06,124.2
2019-10-25T03:38:15,42.805,6.029,0.038,-0.007,-0.01,100.0,102.0,98.0,13.4,1505.3,325.7,-0.7,1.8,2470.022,13.32,0.038,100.4
2019-10-25T03:41:16,42.805,6.029,0.01,-0.014,-0.034,98.0,102.0,98.0,13.3,1505.3,325.6,-0.7,1.8,2469.991,13.32,0.017,144.5
2019-10-25T03:44:17,42.805,6.029,0.062,-0.007,-0.014,100.0,102.0,98.0,13.3,1505.3,323.3,-0.7,1.8,2469.986,13.32,0.062,96.4
2019-10-25T03:47:18,42.805,6.029,0.046,0.003,-0.06,101.0,102.0,97.0,13.3,1505.3,327.2,-0.7,1.8,2470.036,13.32,0.046,86.3
2019-10-25T03:50:19,42.805,6.029,0.062,-0.004,-0.007,101.0,102.0,98.0,13.4,1505.3,325.8,-0.7,1.9,2469.96,13.32,0.062,93.7
2019-10-25T03:53:20,42.805,6.029,0.05,0.006,-0.027,99.0,103.0,98.0,13.3,1505.3,326.0,-0.7,1.9,2470.049,13.32,0.05,83.2
2019-10-25T03:56:21,42.805,6.029,0.056,-0.023,-0.001,100.0,103.0,98.0,13.3,1505.3,323.7,-0.7,1.8,2470.007,13.32,0.06,112.3
2019-10-25T03:59:22,42.805,6.029,0.03,-0.013,-0.039,99.0,101.0,98.0,13.4,1505.3,326.9,-0.7,1.8,2469.965,13.32,0.032,113.4
2019-10-25T04:02:23,42.805,6.029,0.045,-0.011,-0.015,100.0,102.0,98.0,13.4,1505.3,325.1,-0.7,1.8,2470.049,13.32,0.046,103.7
2019-10-25T04:05:24,42.805,6.029,0.054,-0.018,0.029,99.0,102.0,98.0,13.4,1505.3,324.4,-0.7,1.8,2470.012,13.32,0.056,108.4
2019-10-25T04:08:25,42.805,6.029,0.054,-0.033,-0.035,101.0,102.0,97.0,13.4,1505.3,326.3,-0.7,1.8,2469.978,13.32,0.063,121.4
2019-10-25T04:11:26,42.805,6.029,0.073,-0.015,-0.031,101.0,101.0,98.0,13.3,1505.3,325.7,-0.8,1.8,2470.032,13.32,0.074,101.6
2019-10-25T04:14:27,42.805,6.029,0.051,-0.021,-0.01,101.0,101.0,97.0,13.4,1505.3,327.4,-0.7,1.8,2470.019,13.32,0.055,112.4
2019-10-25T04:17:28,42.805,6.029,0.08,-0.014,-0.035,99.0,102.0,98.0,13.3,1505.3,327.8,-0.7,1.8,2469.956,13.32,0.081,99.9
2019-10-25T04:20:29,42.805,6.029,0.058,-0.018,0.009,100.0,102.0,97.0,13.3,1505.3,326.9,-0.7,1.9,2470.057,13.32,0.06,107.2
2019-10-25T04:23:30,42.805,6.029,0.075,0.0,-0.006,101.0,101.0,97.0,13.4,1505.3,326.0,-0.7,1.8,2470.051,13.32,0.074,90.0
2019-10-25T04:26:31,42.805,6.029,0.045,-0.012,-0.027,100.0,102.0,98.0,13.3,1505.3,328.5,-0.7,1.8,2470.031,13.32,0.046,104.9
2019-10-25T04:29:32,42.805,6.029,0.021,-0.033,-0.046,99.0,102.0,98.0,13.4,1505.3,324.1,-0.7,1.8,2470.026,13.32,0.039,147.5
2019-10-25T04:32:33,42.805,6.029,0.034,-0.032,-0.04,100.0,102.0,98.0,13.3,1505.3,323.9,-0.7,1.8,2469.99,13.32,0.046,133.3
2019-10-25T04:35:34,42.805,6.029,0.07,-0.015,-0.019,98.0,102.0,99.0,13.4,1505.3,323.8,-0.7,1.8,2469.973,13.32,0.071,102.1
2019-10-25T04:38:35,42.805,6.029,0.053,-0.014,-0.028,100.0,102.0,97.0,13.4,1505.3,325.4,-0.7,1.8,2470.025,13.32,0.054,104.8
2019-10-25T04:41:36,42.805,6.029,0.041,-0.02,-0.028,100.0,101.0,98.0,13.4,1505.3,326.6,-0.7,1.8,2470.041,13.32,0.045,116.0
2019-10-25T04:44:37,42.805,6.029,0.061,-0.001,-0.019,100.0,102.0,97.0,13.3,1505.3,326.7,-0.7,1.8,2470.018,13.32,0.061,90.9
2019-10-25T04:47:38,42.805,6.029,0.039,0.007,-0.008,101.0,101.0,98.0,13.3,1505.3,324.8,-0.7,1.8,2469.979,13.32,0.039,79.8
2019-10-25T04:50:39,42.805,6.029,0.053,0.0,0.0,100.0,101.0,98.0,13.3,1505.3,324.2,-0.7,1.8,2470.029,13.32,0.053,90.0
2019-10-25T04:53:40,42.805,6.029,0.057,-0.01,-0.042,99.0,101.0,98.0,13.4,1505.3,326.8,-0.7,1.8,2470.031,13.32,0.057,99.9
2019-10-25T04:56:41,42.805,6.029,0.04,-0.016,-0.021,100.0,101.0,98.0,13.4,1505.3,327.1,-0.7,1.9,2470.044,13.32,0.043,111.8
2019-10-25T04:59:42,42.805,6.029,0.054,-0.034,-0.028,100.0,102.0,97.0,13.4,1505.3,328.4,-0.7,1.8,2470.054,13.32,0.063,122.2
2019-10-25T05:02:43,42.805,6.029,0.067,-0.007,-0.018,99.0,102.0,98.0,13.4,1505.3,323.9,-0.7,1.8,2470.027,13.32,0.067,96.0
2019-10-25T05:05:44,42.805,6.029,0.048,0.0,-0.021,99.0,102.0,98.0,13.3,1505.3,326.7,-0.7,1.8,2470.035,13.32,0.048,90.0
2019-10-25T05:08:45,42.805,6.029,0.087,-0.015,0.006,99.0,102.0,98.0,13.4,1505.3,326.0,-0.7,1.8,2470.056,13.32,0.088,99.8
2019-10-25T05:11:46,42.805,6.029,0.048,-0.017,-0.011,99.0,102.0,98.0,13.4,1505.3,325.1,-0.7,1.8,2470.066,13.32,0.05,109.5
2019-10-25T05:14:47,42.805,6.029,0.037,-0.03,-0.04,99.0,102.0,98.0,13.3,1505.3,327.1,-0.7,1.8,2470.003,13.32,0.047,129.0
2019-10-25T05:17:48,42.805,6.029,0.052,-0.017,-0.015,100.0,101.0,98.0,13.3,1505.3,328.1,-0.7,1.9,2470.022,13.32,0.054,108.1
2019-10-25T05:20:49,42.805,6.029,0.035,-0.001,0.013,99.0,102.0,98.0,13.4,1505.3,325.1,-0.7,1.9,2470.103,13.32,0.035,91.6
2019-10-25T05:23:50,42.805,6.029,0.046,-0.008,-0.005,98.0,101.0,99.0,13.4,1505.3,325.7,-0.7,1.8,2470.032,13.32,0.046,99.9
2019-10-25T05:26:51,42.805,6.029,0.043,-0.016,-0.028,100.0,101.0,98.0,13.4,1505.3,325.3,-0.7,1.8,2470.034,13.32,0.045,110.4
2019-10-25T05:29:52,42.805,6.029,0.02,-0.008,-0.057,100.0,102.0,98.0,13.3,1505.3,325.3,-0.7,1.9,2470.023,13.32,0.021,111.8
2019-10-25T05:32:53,42.805,6.029,0.068,-0.028,-0.005,100.0,102.0,98.0,13.3,1505.3,328.5,-0.7,1.8,2470.061,13.32,0.073,112.4
2019-10-25T05:35:54,42.805,6.029,0.062,-0.013,-0.022,100.0,102.0,99.0,13.4,1505.3,324.1,-0.7,1.8,2470.026,13.32,0.063,101.8
2019-10-25T05:38:55,42.805,6.029,0.057,-0.017,-0.012,100.0,102.0,98.0,13.3,1505.3,326.5,-0.7,1.8,2470.068,13.32,0.059,106.6
2019-10-25T05:41:56,42.805,6.029,0.077,-0.022,-0.026,99.0,101.0,98.0,13.3,1505.3,324.2,-0.7,1.8,2470.017,13.32,0.08,105.9
2019-10-25T05:44:57,42.805,6.029,0.06,-0.001,-0.008,100.0,103.0,97.0,13.4,1505.3,324.9,-0.7,1.9,2470.023,13.32,0.06,91.0
2019-10-25T05:47:58,42.805,6.029,0.06,-0.013,-0.016,100.0,102.0,98.0,13.4,1505.3,324.0,-0.7,1.8,2470.092,13.32,0.061,102.2
2019-10-25T05:50:59,42.805,6.029,0.037,-0.016,-0.061,101.0,102.0,98.0,13.4,1505.3,326.3,-0.7,1.8,2470.027,13.32,0.04,113.4
2019-10-25T05:54:00,42.805,6.029,0.039,-0.017,-0.038,100.0,102.0,98.0,13.3,1505.3,325.7,-0.7,1.9,2470.022,13.32,0.042,113.5
2019-10-25T05:57:01,42.805,6.029,0.046,0.001,-0.021,100.0,102.0,99.0,13.4,1505.3,325.4,-0.7,1.8,2470.026,13.32,0.046,88.8
2019-10-25T06:00:02,42.805,6.029,0.095,-0.008,-0.003,100.0,102.0,98.0,13.4,1505.3,324.3,-0.7,1.8,2470.026,13.32,0.095,94.8
2019-10-25T06:03:03,42.805,6.029,0.039,-0.028,-0.027,100.0,102.0,98.0,13.4,1505.3,325.6,-0.7,1.8,2469.997,13.32,0.048,125.7
2019-10-25T06:06:04,42.805,6.029,0.056,0.004,-0.008,99.0,102.0,98.0,13.3,1505.3,323.6,-0.6,1.8,2470.017,13.32,0.056,85.9
2019-10-25T06:09:05,42.805,6.029,0.059,0.0,0.002,101.0,102.0,98.0,13.4,1505.3,324.4,-0.7,1.8,2470.031,13.32,0.058,90.0
2019-10-25T06:12:06,42.805,6.029,0.04,-0.021,-0.037,100.0,102.0,97.0,13.4,1505.3,325.7,-0.7,1.8,2470.012,13.32,0.045,117.7
2019-10-25T06:15:07,42.805,6.029,0.053,-0.007,-0.013,100.0,102.0,99.0,13.3,1505.3,327.2,-0.7,1.8,2470.03,13.32,0.053,97.5
2019-10-25T06:18:08,42.805,6.029,0.022,-0.004,-0.022,100.0,101.0,99.0,13.4,1505.3,325.4,-0.7,1.8,2470.0,13.32,0.022,100.3
2019-10-25T06:21:09,42.805,6.029,0.046,-0.014,-0.014,100.0,101.0,99.0,13.3,1505.3,323.9,-0.8,1.8,2470.051,13.32,0.048,106.9
2019-10-25T06:24:10,42.805,6.029,0.037,0.0,-0.009,99.0,102.0,98.0,13.4,1505.3,324.8,-0.7,1.8,2470.003,13.32,0.037,90.0
2019-10-25T06:27:11,42.805,6.029,0.052,-0.001,-0.032,99.0,103.0,98.0,13.4,1505.3,327.2,-0.7,1.8,2470.066,13.32,0.052,91.1
2019-10-25T06:30:12,42.805,6.029,0.053,0.003,-0.013,101.0,103.0,98.0,13.3,1505.3,324.2,-0.7,1.8,2470.022,13.32,0.053,86.8
2019-10-25T06:33:13,42.805,6.029,0.047,-0.002,-0.018,101.0,102.0,98.0,13.4,1505.3,324.8,-0.6,1.8,2470.008,13.32,0.047,92.4
2019-10-25T06:36:14,42.805,6.029,0.046,-0.014,-0.026,100.0,101.0,99.0,13.4,1505.3,328.0,-0.7,1.8,2469.999,13.32,0.048,106.9
2019-10-25T06:39:15,42.805,6.029,0.053,-0.028,-0.008,100.0,102.0,97.0,13.4,1505.3,328.5,-0.7,1.8,2470.045,13.32,0.059,117.9
2019-10-25T06:42:16,42.805,6.029,0.05,-0.027,-0.01,99.0,102.0,98.0,13.4,1505.3,326.7,-0.7,1.8,2470.04,13.32,0.056,118.4
2019-10-25T06:45:17,42.805,6.029,0.062,-0.02,-0.028,100.0,101.0,98.0,13.4,1505.3,326.9,-0.7,1.9,2470.018,13.32,0.065,107.9
2019-10-25T06:48:18,42.805,6.029,0.03,0.004,-0.048,101.0,101.0,97.0,13.4,1505.3,325.4,-0.7,1.8,2470.029,13.32,0.03,82.4
2019-10-25T06:51:19,42.805,6.029,0.046,0.0,-0.046,100.0,102.0,99.0,13.4,1505.3,323.7,-0.7,1.9,2470.042,13.32,0.046,90.0
2019-10-25T06:54:20,42.805,6.029,0.044,-0.047,-0.043,100.0,102.0,97.0,13.4,1505.3,326.6,-0.7,1.9,2469.977,13.32,0.064,136.9
2019-10-25T06:57:21,42.805,6.029,0.057,-0.01,-0.027,101.0,102.0,98.0,13.3,1505.3,328.4,-0.7,1.8,2470.002,13.32,0.057,99.9
2019-10-25T07:00:22,42.805,6.029,0.023,-0.006,-0.044,99.0,101.0,98.0,13.4,1505.3,323.2,-0.7,1.9,2469.989,13.32,0.023,104.6
2019-10-25T07:03:23,42.805,6.029,0.069,-0.011,-0.003,100.0,102.0,98.0,13.3,1505.3,324.6,-0.7,1.8,2470.008,13.32,0.069,99.1
2019-10-25T07:06:24,42.805,6.029,0.048,0.005,-0.017,100.0,103.0,98.0,13.4,1505.3,325.0,-0.7,1.8,2469.999,13.32,0.048,84.1
2019-10-25T07:09:25,42.805,6.029,0.038,-0.014,-0.018,101.0,101.0,98.0,13.4,1505.3,325.8,-0.8,1.8,2469.982,13.32,0.04,110.2
2019-10-25T07:12:26,42.805,6.029,0.067,-0.009,-0.064,98.0,101.0,99.0,13.4,1505.3,325.3,-0.7,1.8,2469.989,13.32,0.067,97.7
2019-10-25T07:15:27,42.805,6.029,0.032,-0.002,-0.029,101.0,101.0,98.0,13.4,1505.3,328.0,-0.7,1.9,2469.993,13.32,0.032,93.6
2019-10-25T07:18:28,42.805,6.029,0.058,-0.023,-0.015,100.0,101.0,98.0,13.4,1505.3,327.1,-0.7,1.9,2469.982,13.32,0.062,111.6
2019-10-25T07:21:29,42.805,6.029,0.045,-0.02,-0.032,99.0,102.0,98.0,13.3,1505.3,326.4,-0.7,1.8,2470.012,13.32,0.049,114.0
2019-10-25T07:24:30,42.805,6.029,0.052,-0.028,0.011,100.0,102.0,99.0,13.4,1505.3,327.1,-0.7,1.8,2470.012,13.32,0.059,118.3
2019-10-25T07:27:31,42.805,6.029,0.043,-0.013,-0.033,100.0,101.0,98.0,13.3,1505.3,326.0,-0.7,1.8,2470.0,13.32,0.044,106.8
2019-10-25T07:30:32,42.805,6.029,0.044,0.003,-0.034,101.0,100.0,98.0,13.4,1505.3,326.5,-0.7,1.8,2469.955,13.32,0.044,86.1
2019-10-25T07:33:33,42.805,6.029,0.021,-0.002,-0.023,101.0,100.0,98.0,13.3,1505.3,323.4,-0.7,1.9,2469.987,13.32,0.021,95.4
2019-10-25T07:36:34,42.805,6.029,0.028,-0.016,-0.021,100.0,99.0,98.0,13.3,1505.3,325.1,-0.7,1.8,2469.979,13.32,0.032,119.7
2019-10-25T07:39:35,42.805,6.029,0.065,0.02,-0.023,100.0,101.0,99.0,13.4,1505.3,324.1,-0.7,1.8,2470.013,13.32,0.068,72.9
2019-10-25T07:42:36,42.805,6.029,0.066,-0.009,-0.032,101.0,101.0,99.0,13.4,1505.3,324.8,-0.7,1.8,2469.98,13.32,0.066,97.8
2019-10-25T07:45:37,42.805,6.029,0.044,-0.028,-0.048,100.0,101.0,98.0,13.3,1505.3,323.8,-0.7,1.8,2469.976,13.32,0.052,122.5
2019-10-25T07:48:38,42.805,6.029,0.059,-0.011,-0.028,98.0,102.0,98.0,13.4,1505.3,325.5,-0.7,1.9,2470.015,13.32,0.06,100.6
2019-10-25T07:51:39,42.805,6.029,0.022,-0.004,-0.014,99.0,101.0,98.0,13.4,1505.3,323.8,-0.7,1.9,2469.997,13.32,0.022,100.3
2019-10-25T07:54:40,42.805,6.029,0.067,-0.023,-0.05,99.0,101.0,98.0,13.3,1505.3,327.6,-0.8,1.9,2469.986,13.32,0.07,108.9
2019-10-25T07:57:41,42.805,6.029,0.063,-0.004,-0.039,100.0,101.0,98.0,13.4,1505.3,325.9,-0.7,1.8,2469.99,13.32,0.063,93.6
2019-10-25T08:00:42,42.805,6.029,0.06,-0.016,-0.03,98.0,102.0,98.0,13.4,1505.3,327.2,-0.7,1.8,2469.969,13.32,0.062,104.9
2019-10-25T08:03:43,42.805,6.029,0.043,-0.022,-0.044,100.0,101.0,98.0,13.4,1505.3,327.0,-0.7,1.9,2469.964,13.32,0.048,117.1
2019-10-25T08:06:44,42.805,6.029,0.065,-0.007,-0.022,100.0,102.0,97.0,13.3,1505.3,326.6,-0.7,1.9,2469.974,13.32,0.065,96.1
2019-10-25T08:09:45,42.805,6.029,0.045,-0.026,-0.008,99.0,102.0,98.0,13.4,1505.3,323.0,-0.7,1.9,2469.98,13.32,0.051,120.0
2019-10-25T08:12:46,42.805,6.029,0.033,-0.017,-0.08,100.0,101.0,98.0,13.4,1505.3,324.9,-0.7,1.8,2469.976,13.32,0.037,117.3
2019-10-25T08:15:47,42.805,6.029,0.046,-0.016,-0.019,100.0,100.0,97.0,13.3,1505.3,327.8,-0.7,1.8,2469.958,13.32,0.048,109.2
2019-10-25T08:18:48,42.805,6.029,0.057,-0.019,-0.027,99.0,101.0,98.0,13.3,1505.3,328.1,-0.7,1.8,2469.991,13.32,0.06,108.4
2019-10-25T08:21:49,42.805,6.029,0.059,-0.031,-0.041,99.0,100.0,99.0,13.3,1505.3,325.0,-0.7,1.8,2470.016,13.32,0.066,117.7
2019-10-25T08:24:50,42.805,6.029,0.056,-0.001,-0.026,99.0,101.0,98.0,13.4,1505.3,323.6,-0.7,1.8,2469.965,13.32,0.056,91.0
2019-10-25T08:27:51,42.805,6.029,0.042,-0.005,-0.027,101.0,101.0,97.0,13.4,1505.3,326.5,-0.7,1.8,2469.956,13.32,0.042,96.8
2019-10-25T08:30:52,42.805,6.029,0.067,-0.016,-0.007,100.0,100.0,98.0,13.3,1505.3,325.6,-0.7,1.8,2470.004,13.32,0.068,103.4
2019-10-25T08:33:53,42.805,6.029,0.046,-0.016,-0.026,99.0,100.0,98.0,13.3,1505.3,326.0,-0.7,1.8,2469.973,13.32,0.048,109.2
2019-10-25T08:36:54,42.805,6.029,0.064,-0.013,-0.045,101.0,101.0,98.0,13.3,1505.3,324.1,-0.7,1.8,2469.98,13.32,0.065,101.5
2019-10-25T08:39:55,42.805,6.029,0.056,-0.016,-0.04,100.0,101.0,98.0,13.3,1505.3,327.9,-0.7,1.8,2469.968,13.32,0.058,105.9
2019-10-25T08:42:56,42.805,6.029,0.044,-0.027,-0.053,98.0,101.0,98.0,13.4,1505.3,325.0,-0.7,1.8,2469.986,13.32,0.051,121.5
2019-10-25T08:45:57,42.805,6.029,0.094,-0.023,-0.002,99.0,101.0,98.0,13.3,1505.3,327.9,-0.7,1.9,2469.976,13.32,0.096,103.7
2019-10-25T08:48:58,42.805,6.029,0.036,0.0,-0.036,100.0,102.0,97.0,13.3,1505.3,326.7,-0.7,1.8,2469.977,13.32,0.036,90.0
2019-10-25T08:51:59,42.805,6.029,0.042,-0.029,-0.026,100.0,102.0,98.0,13.4,1505.3,328.3,-0.7,1.8,2469.972,13.32,0.051,124.6
2019-10-25T08:55:00,42.805,6.029,0.067,-0.004,0.017,100.0,101.0,98.0,13.4,1505.3,327.1,-0.7,1.8,2469.963,13.32,0.067,93.4
2019-10-25T08:58:01,42.805,6.029,0.003,-0.012,-0.036,100.0,101.0,98.0,13.3,1505.3,327.1,-0.7,1.9,2469.963,13.32,0.012,166.0
2019-10-25T09:01:02,42.805,6.029,0.047,-0.017,-0.026,99.0,102.0,98.0,13.3,1505.3,326.6,-0.7,1.9,2469.933,13.32,0.049,109.9
2019-10-25T09:04:03,42.805,6.029,0.069,-0.017,-0.025,100.0,101.0,97.0,13.4,1505.3,328.8,-0.7,1.8,2469.977,13.32,0.071,103.8
2019-10-25T09:07:04,42.805,6.029,0.036,0.001,-0.026,100.0,99.0,98.0,13.4,1505.3,324.6,-0.8,1.9,2469.915,13.32,0.036,88.4
